{"data":{"norad_id":62503,"intl_designator":"2025-003S","name":"STARLINK-32768","alt_names":[],"object_type":"PAYLOAD","status":"ACTIVE","operator":null,"country":"US","launch_date":"2025-01-06","launch_site_code":"AFETR","launch_vehicle":null,"mission":null,"orbit_class":"UNKNOWN","rcs_meters":null,"size_class":null,"mass_kg":null,"dimensions":null,"purposes":["comms"],"wikipedia_slug":null,"has_3d_model":false,"image_url":null,"decayed_at":null,"tle_current":{"epoch":"2026-09-21T09:09:27.690336Z","epoch_age_seconds":98321,"freshness":"FRESH","line1":"1 62503U 25003S   26264.38157049  .00008610  00000+0  32197-3 0  9992","line2":"2 62503  43.0043 263.4969 0001918 286.5593  73.5048 15.27588340 96485","mean_motion":15.2758834,"eccentricity":0.0001918,"inclination_deg":43.0043,"raan_deg":263.4969,"arg_perigee_deg":286.5593,"mean_anomaly_deg":73.5048,"bstar":0.00032197,"rev_number":9648,"period_min":94.266234056225,"perigee_km":481.70815248954,"apogee_km":484.3400938964,"semimajor_km":6861.161123193,"source":"CELESTRAK","updated_at":"2026-09-22T09:00:49.619566Z"}}}